Time,TemperatureF,DewpointF,PressureIn,WindDirection,WindDirectionDegrees,WindSpeedMPH,WindSpeedGustMPH,Humidity,HourlyPrecipIn,Conditions,Clouds,dailyrainin,SoftwareType,DateUTC
2013-10-31 00:00:00,64.8,59.5,30.18,WSW,248,0.0,3.0,83,0.00,,---,0.00,VWS V14.01,2013-10-31 04:00:00,
2013-10-31 00:01:00,64.8,59.5,30.18,WSW,248,0.0,0.0,83,0.00,,---,0.00,VWS V14.01,2013-10-31 04:01:00,
2013-10-31 00:06:00,64.8,59.2,30.17,WSW,248,0.0,0.0,82,0.00,,---,0.00,VWS V14.01,2013-10-31 04:06:00,
2013-10-31 00:11:00,64.7,59.1,30.17,WSW,248,1.0,2.0,82,0.00,,---,0.00,VWS V14.01,2013-10-31 04:11:00,
2013-10-31 00:16:00,64.6,59.0,30.17,WSW,248,0.0,2.0,82,0.00,,---,0.00,VWS V14.01,2013-10-31 04:16:00,
2013-10-31 00:21:00,64.8,59.2,30.17,WSW,248,2.0,3.0,82,0.00,,---,0.00,VWS V14.01,2013-10-31 04:21:00,
2013-10-31 00:26:00,64.9,58.9,30.17,WSW,248,2.0,3.0,81,0.00,,---,0.00,VWS V14.01,2013-10-31 04:26:00,
2013-10-31 00:31:00,65.0,59.0,30.17,WSW,248,0.0,1.0,81,0.00,,---,0.00,VWS V14.01,2013-10-31 04:31:00,
2013-10-31 00:36:00,65.0,59.0,30.17,WSW,248,0.0,2.0,81,0.00,,---,0.00,VWS V14.01,2013-10-31 04:36:00,
2013-10-31 00:41:00,64.8,58.8,30.17,WSW,248,1.0,2.0,81,0.00,,---,0.00,VWS V14.01,2013-10-31 04:41:00,
2013-10-31 00:46:00,64.7,58.7,30.17,WSW,247,0.0,2.0,81,0.00,,---,0.00,VWS V14.01,2013-10-31 04:46:00,
2013-10-31 00:51:00,65.0,58.7,30.16,WSW,248,1.0,3.0,80,0.00,,---,0.00,VWS V14.01,2013-10-31 04:51:00,
2013-10-31 00:56:00,65.1,58.8,30.17,WSW,248,0.0,3.0,80,0.00,,---,0.00,VWS V14.01,2013-10-31 04:56:00,
2013-10-31 01:01:00,65.1,58.8,30.17,WSW,248,0.0,2.0,80,0.00,,---,0.00,VWS V14.01,2013-10-31 05:01:00,
2013-10-31 01:06:00,65.0,58.7,30.17,WSW,248,1.0,2.0,80,0.00,,---,0.00,VWS V14.01,2013-10-31 05:06:00,
2013-10-31 01:11:00,64.9,58.6,30.17,WSW,247,1.0,2.0,80,0.00,,---,0.00,VWS V14.01,2013-10-31 05:11:00,
2013-10-31 01:16:00,64.9,58.6,30.16,WSW,248,2.0,3.0,80,0.00,,---,0.00,VWS V14.01,2013-10-31 05:16:00,
2013-10-31 01:21:00,64.9,58.6,30.16,WSW,248,0.0,3.0,80,0.00,,---,0.00,VWS V14.01,2013-10-31 05:21:00,
2013-10-31 01:26:00,64.8,58.5,30.16,WSW,248,0.0,3.0,80,0.00,,---,0.00,VWS V14.01,2013-10-31 05:26:00,
2013-10-31 01:31:00,64.7,58.7,30.16,WSW,248,1.0,3.0,81,0.00,,---,0.00,VWS V14.01,2013-10-31 05:31:00,
2013-10-31 01:36:00,64.7,58.7,30.16,WSW,248,2.0,3.0,81,0.00,,---,0.00,VWS V14.01,2013-10-31 05:36:00,
2013-10-31 01:41:00,64.7,58.7,30.16,WSW,248,0.0,3.0,81,0.00,,---,0.00,VWS V14.01,2013-10-31 05:41:00,
2013-10-31 01:46:00,64.7,58.7,30.16,WSW,248,1.0,3.0,81,0.00,,---,0.00,VWS V14.01,2013-10-31 05:46:00,
2013-10-31 01:51:00,64.7,58.4,30.15,WSW,248,0.0,3.0,80,0.00,,---,0.00,VWS V14.01,2013-10-31 05:51:00,
2013-10-31 01:56:00,64.8,58.8,30.15,WSW,247,0.0,3.0,81,0.00,,---,0.00,VWS V14.01,2013-10-31 05:56:00,
2013-10-31 02:01:00,64.6,58.7,30.15,WSW,248,0.0,0.0,81,0.00,,---,0.00,VWS V14.01,2013-10-31 06:01:00,
2013-10-31 02:06:00,64.4,58.8,30.15,WSW,246,0.0,1.0,82,0.00,,---,0.00,VWS V14.01,2013-10-31 06:06:00,
2013-10-31 02:11:00,64.2,58.6,30.15,WSW,248,1.0,3.0,82,0.00,,---,0.00,VWS V14.01,2013-10-31 06:11:00,
2013-10-31 02:16:00,64.2,58.6,30.15,WSW,248,0.0,3.0,82,0.00,,---,0.00,VWS V14.01,2013-10-31 06:16:00,
2013-10-31 02:21:00,64.1,58.5,30.15,WSW,248,1.0,3.0,82,0.00,,---,0.00,VWS V14.01,2013-10-31 06:21:00,
2013-10-31 02:26:00,64.0,58.4,30.15,WSW,248,0.0,3.0,82,0.00,,---,0.00,VWS V14.01,2013-10-31 06:26:00,
2013-10-31 02:31:00,63.8,58.5,30.15,WSW,248,0.0,0.0,83,0.00,,---,0.00,VWS V14.01,2013-10-31 06:31:00,
2013-10-31 02:36:00,63.6,58.3,30.15,WSW,248,0.0,0.0,83,0.00,,---,0.00,VWS V14.01,2013-10-31 06:36:00,
2013-10-31 02:41:00,63.4,58.2,30.15,WSW,248,0.0,2.0,83,0.00,,---,0.00,VWS V14.01,2013-10-31 06:41:00,
2013-10-31 02:46:00,63.4,58.2,30.15,WSW,248,0.0,2.0,83,0.00,,---,0.00,VWS V14.01,2013-10-31 06:46:00,
2013-10-31 02:51:00,63.4,58.2,30.14,WSW,248,0.0,2.0,83,0.00,,---,0.00,VWS V14.01,2013-10-31 06:51:00,
2013-10-31 02:56:00,63.4,58.2,30.14,WSW,248,0.0,2.0,83,0.00,,---,0.00,VWS V14.01,2013-10-31 06:56:00,
2013-10-31 03:01:00,63.4,58.2,30.14,WSW,247,0.0,1.0,83,0.00,,---,0.00,VWS V14.01,2013-10-31 07:01:00,
2013-10-31 03:06:00,63.3,58.1,30.14,WSW,248,0.0,1.0,83,0.00,,---,0.00,VWS V14.01,2013-10-31 07:06:00,
2013-10-31 03:11:00,63.1,57.9,30.14,WSW,248,0.0,1.0,83,0.00,,---,0.00,VWS V14.01,2013-10-31 07:11:00,
2013-10-31 03:16:00,62.9,57.7,30.14,WSW,248,0.0,1.0,83,0.00,,---,0.00,VWS V14.01,2013-10-31 07:16:00,
2013-10-31 03:21:00,62.8,57.6,30.13,WSW,248,0.0,1.0,83,0.00,,---,0.00,VWS V14.01,2013-10-31 07:21:00,
2013-10-31 03:26:00,62.6,57.7,30.13,WSW,248,0.0,2.0,84,0.00,,---,0.00,VWS V14.01,2013-10-31 07:26:00,
2013-10-31 03:31:00,62.7,57.8,30.13,WSW,248,1.0,3.0,84,0.00,,---,0.00,VWS V14.01,2013-10-31 07:31:00,
2013-10-31 03:36:00,62.9,57.7,30.13,WSW,247,0.0,3.0,83,0.00,,---,0.00,VWS V14.01,2013-10-31 07:36:00,
2013-10-31 03:41:00,63.3,57.7,30.13,WSW,248,0.0,3.0,82,0.00,,---,0.00,VWS V14.01,2013-10-31 07:41:00,
2013-10-31 03:46:00,63.7,57.8,30.13,WSW,248,2.0,3.0,81,0.00,,---,0.00,VWS V14.01,2013-10-31 07:46:00,
2013-10-31 03:51:00,64.1,57.8,30.13,WSW,248,1.0,3.0,80,0.00,,---,0.00,VWS V14.01,2013-10-31 07:51:00,
2013-10-31 03:56:00,64.3,57.7,30.13,WSW,247,2.0,3.0,79,0.00,,---,0.00,VWS V14.01,2013-10-31 07:56:00,
2013-10-31 04:01:00,64.5,57.8,30.12,WSW,240,2.0,3.0,79,0.00,,---,0.00,VWS V14.01,2013-10-31 08:01:00,
2013-10-31 04:06:00,64.7,57.7,30.12,WSW,238,3.0,5.0,78,0.00,,---,0.00,VWS V14.01,2013-10-31 08:06:00,
2013-10-31 04:11:00,64.8,57.4,30.12,SW,232,3.0,6.0,77,0.00,,---,0.00,VWS V14.01,2013-10-31 08:11:00,
2013-10-31 04:16:00,65.0,57.6,30.12,SW,232,3.0,6.0,77,0.00,,---,0.00,VWS V14.01,2013-10-31 08:16:00,
2013-10-31 04:21:00,65.0,57.6,30.12,SW,227,4.0,6.0,77,0.00,,---,0.00,VWS V14.01,2013-10-31 08:21:00,
2013-10-31 04:26:00,64.9,57.5,30.12,SW,225,5.0,6.0,77,0.00,,---,0.00,VWS V14.01,2013-10-31 08:26:00,
2013-10-31 04:31:00,64.8,57.8,30.12,SW,225,4.0,4.0,78,0.00,,---,0.00,VWS V14.01,2013-10-31 08:31:00,
2013-10-31 04:36:00,64.6,57.6,30.12,SW,225,0.0,5.0,78,0.00,,---,0.00,VWS V14.01,2013-10-31 08:36:00,
2013-10-31 04:41:00,64.4,57.4,30.13,SW,225,2.0,5.0,78,0.00,,---,0.00,VWS V14.01,2013-10-31 08:41:00,
2013-10-31 04:46:00,64.3,57.3,30.13,SW,225,0.0,7.0,78,0.00,,---,0.00,VWS V14.01,2013-10-31 08:46:00,
2013-10-31 04:50:00,64.0,57.4,30.12,SW,225,1.0,7.0,79,0.00,,---,0.00,VWS V14.01,2013-10-31 08:50:00,
2013-10-31 04:55:00,63.9,57.3,30.12,SW,225,2.0,7.0,79,0.00,,---,0.00,VWS V14.01,2013-10-31 08:55:00,
2013-10-31 05:00:00,63.9,57.3,30.12,SW,225,1.0,3.0,79,0.00,,---,0.00,VWS V14.01,2013-10-31 09:00:00,
2013-10-31 05:05:00,63.9,57.3,30.12,SW,225,2.0,4.0,79,0.00,,---,0.00,VWS V14.01,2013-10-31 09:05:00,
2013-10-31 05:10:00,63.8,57.5,30.12,SW,225,0.0,6.0,80,0.00,,---,0.00,VWS V14.01,2013-10-31 09:10:00,
2013-10-31 05:15:00,63.8,57.2,30.11,SW,225,0.0,6.0,79,0.00,,---,0.00,VWS V14.01,2013-10-31 09:15:00,
2013-10-31 05:20:00,63.6,57.3,30.12,SW,225,1.0,6.0,80,0.00,,---,0.00,VWS V14.01,2013-10-31 09:20:00,
2013-10-31 05:25:00,63.5,57.2,30.12,SW,225,3.0,6.0,80,0.00,,---,0.00,VWS V14.01,2013-10-31 09:25:00,
2013-10-31 05:30:00,63.5,57.2,30.12,SW,225,1.0,2.0,80,0.00,,---,0.00,VWS V14.01,2013-10-31 09:30:00,
2013-10-31 05:35:00,63.4,57.5,30.12,SW,225,1.0,4.0,81,0.00,,---,0.00,VWS V14.01,2013-10-31 09:35:00,
2013-10-31 05:40:00,63.3,57.4,30.12,SW,225,4.0,5.0,81,0.00,,---,0.00,VWS V14.01,2013-10-31 09:40:00,
2013-10-31 05:45:00,63.3,57.4,30.12,SW,225,1.0,5.0,81,0.00,,---,0.00,VWS V14.01,2013-10-31 09:45:00,
2013-10-31 05:50:00,63.3,57.4,30.12,SW,225,1.0,5.0,81,0.00,,---,0.00,VWS V14.01,2013-10-31 09:50:00,
2013-10-31 05:55:00,63.3,57.4,30.12,SW,225,2.0,5.0,81,0.00,,---,0.00,VWS V14.01,2013-10-31 09:55:00,
2013-10-31 06:00:00,63.3,57.4,30.12,SW,225,0.0,0.0,81,0.00,,---,0.00,VWS V14.01,2013-10-31 10:00:00,
2013-10-31 06:05:00,63.3,57.4,30.13,SW,221,3.0,6.0,81,0.00,,---,0.00,VWS V14.01,2013-10-31 10:05:00,
2013-10-31 06:10:00,63.3,57.4,30.12,SW,221,0.0,6.0,81,0.00,,---,0.00,VWS V14.01,2013-10-31 10:10:00,
2013-10-31 06:15:00,63.3,57.4,30.13,SW,221,3.0,6.0,81,0.00,,---,0.00,VWS V14.01,2013-10-31 10:15:00,
2013-10-31 06:20:00,63.2,57.3,30.13,SW,221,0.0,6.0,81,0.00,,---,0.00,VWS V14.01,2013-10-31 10:20:00,
2013-10-31 06:25:00,63.1,57.5,30.12,SW,221,1.0,6.0,82,0.00,,---,0.00,VWS V14.01,2013-10-31 10:25:00,
2013-10-31 06:30:00,63.0,57.4,30.12,SW,221,3.0,3.0,82,0.00,,---,0.00,VWS V14.01,2013-10-31 10:30:00,
2013-10-31 06:35:00,63.0,57.4,30.12,SW,221,2.0,4.0,82,0.00,,---,0.00,VWS V14.01,2013-10-31 10:35:00,
2013-10-31 06:40:00,63.0,57.4,30.12,SW,221,1.0,4.0,82,0.00,,---,0.00,VWS V14.01,2013-10-31 10:40:00,
2013-10-31 06:45:00,63.0,57.1,30.12,SW,221,0.0,4.0,81,0.00,,---,0.00,VWS V14.01,2013-10-31 10:45:00,
2013-10-31 06:50:00,63.0,57.1,30.12,SW,221,0.0,4.0,81,0.00,,---,0.00,VWS V14.01,2013-10-31 10:50:00,
2013-10-31 06:55:00,63.0,57.1,30.12,SW,221,4.0,4.0,81,0.00,,---,0.00,VWS V14.01,2013-10-31 10:55:00,
2013-10-31 07:00:00,63.2,56.9,30.12,SW,220,2.0,3.0,80,0.00,,---,0.00,VWS V14.01,2013-10-31 11:00:00,
2013-10-31 07:05:00,63.2,56.9,30.12,SW,220,2.0,4.0,80,0.00,,---,0.00,VWS V14.01,2013-10-31 11:05:00,
2013-10-31 07:10:00,63.1,56.8,30.12,SW,220,1.0,4.0,80,0.00,,---,0.00,VWS V14.01,2013-10-31 11:10:00,
2013-10-31 07:15:00,63.1,56.1,30.11,SSW,194,3.0,5.0,78,0.00,,---,0.00,VWS V14.01,2013-10-31 11:15:00,
2013-10-31 07:20:00,63.2,56.2,30.12,SSW,192,4.0,5.0,78,0.00,,---,0.00,VWS V14.01,2013-10-31 11:20:00,
2013-10-31 07:25:00,63.2,56.2,30.12,South,191,2.0,6.0,78,0.00,,---,0.00,VWS V14.01,2013-10-31 11:25:00,
2013-10-31 07:30:00,63.1,55.8,30.12,South,191,0.0,3.0,77,0.00,,---,0.00,VWS V14.01,2013-10-31 11:30:00,
2013-10-31 07:35:00,63.0,55.7,30.12,South,191,0.0,4.0,77,0.00,,---,0.00,VWS V14.01,2013-10-31 11:35:00,
2013-10-31 07:40:00,63.0,55.7,30.11,South,191,3.0,4.0,77,0.00,,---,0.00,VWS V14.01,2013-10-31 11:40:00,
2013-10-31 07:45:00,63.0,55.3,30.11,South,190,2.0,5.0,76,0.00,,---,0.00,VWS V14.01,2013-10-31 11:45:00,
2013-10-31 07:50:00,63.1,55.4,30.11,South,190,3.0,5.0,76,0.00,,---,0.00,VWS V14.01,2013-10-31 11:50:00,
2013-10-31 07:55:00,63.0,55.0,30.11,South,183,3.0,6.0,75,0.00,,---,0.00,VWS V14.01,2013-10-31 11:55:00,
2013-10-31 08:00:00,63.0,55.0,30.11,South,183,1.0,3.0,75,0.00,,---,0.00,VWS V14.01,2013-10-31 12:00:00,
2013-10-31 08:05:00,62.9,55.2,30.11,South,171,3.0,6.0,76,0.00,,---,0.00,VWS V14.01,2013-10-31 12:05:00,
2013-10-31 08:10:00,62.8,54.8,30.11,South,171,1.0,6.0,75,0.00,,---,0.00,VWS V14.01,2013-10-31 12:10:00,
2013-10-31 08:15:00,62.8,54.8,30.11,South,171,1.0,6.0,75,0.00,,---,0.00,VWS V14.01,2013-10-31 12:15:00,
2013-10-31 08:20:00,62.8,54.4,30.11,South,171,0.0,6.0,74,0.00,,---,0.00,VWS V14.01,2013-10-31 12:20:00,
2013-10-31 08:25:00,62.7,55.0,30.11,South,171,1.0,6.0,76,0.00,,---,0.00,VWS V14.01,2013-10-31 12:25:00,
2013-10-31 08:30:00,62.7,55.0,30.10,South,171,1.0,1.0,76,0.00,,---,0.00,VWS V14.01,2013-10-31 12:30:00,
2013-10-31 08:35:00,62.7,54.3,30.10,East,87,2.0,10.0,74,0.00,,---,0.00,VWS V14.01,2013-10-31 12:35:00,
2013-10-31 08:40:00,63.1,53.9,30.09,East,92,4.0,10.0,72,0.00,,---,0.00,VWS V14.01,2013-10-31 12:40:00,
2013-10-31 08:45:00,63.4,54.2,30.09,East,94,4.0,10.0,72,0.00,,---,0.00,VWS V14.01,2013-10-31 12:45:00,
2013-10-31 08:50:00,63.5,54.3,30.09,East,84,4.0,10.0,72,0.00,,---,0.00,VWS V14.01,2013-10-31 12:50:00,
2013-10-31 08:55:00,63.4,54.2,30.09,East,88,3.0,10.0,72,0.00,,---,0.00,VWS V14.01,2013-10-31 12:55:00,
2013-10-31 09:00:00,63.3,54.5,30.09,East,81,2.0,4.0,73,0.00,,---,0.00,VWS V14.01,2013-10-31 13:00:00,
2013-10-31 09:05:00,63.2,54.4,30.10,East,82,1.0,6.0,73,0.00,,---,0.00,VWS V14.01,2013-10-31 13:05:00,
2013-10-31 09:10:00,63.1,54.3,30.10,East,82,0.0,6.0,73,0.00,,---,0.00,VWS V14.01,2013-10-31 13:10:00,
2013-10-31 09:15:00,63.2,54.4,30.10,East,82,2.0,6.0,73,0.00,,---,0.00,VWS V14.01,2013-10-31 13:15:00,
2013-10-31 09:20:00,63.2,54.4,30.11,East,83,3.0,6.0,73,0.00,,---,0.00,VWS V14.01,2013-10-31 13:20:00,
2013-10-31 09:25:00,63.3,54.5,30.11,East,83,2.0,6.0,73,0.00,,---,0.00,VWS V14.01,2013-10-31 13:25:00,
2013-10-31 09:30:00,63.4,54.6,30.11,East,83,0.0,2.0,73,0.00,,---,0.00,VWS V14.01,2013-10-31 13:30:00,
2013-10-31 09:35:00,63.5,54.3,30.11,East,89,2.0,6.0,72,0.00,,---,0.00,VWS V14.01,2013-10-31 13:35:00,
2013-10-31 09:40:00,63.6,54.4,30.11,East,93,3.0,6.0,72,0.00,,---,0.00,VWS V14.01,2013-10-31 13:40:00,
2013-10-31 09:45:00,63.7,54.5,30.11,SSE,152,1.0,8.0,72,0.00,,---,0.00,VWS V14.01,2013-10-31 13:45:00,
2013-10-31 09:50:00,63.8,54.6,30.11,SSE,150,4.0,8.0,72,0.00,,---,0.00,VWS V14.01,2013-10-31 13:50:00,
2013-10-31 09:55:00,64.0,54.8,30.11,ESE,115,2.0,8.0,72,0.00,,---,0.00,VWS V14.01,2013-10-31 13:55:00,
2013-10-31 10:00:00,64.1,54.5,30.10,ESE,106,7.0,9.0,71,0.00,,---,0.00,VWS V14.01,2013-10-31 14:00:00,
2013-10-31 10:05:00,64.3,55.1,30.10,SE,142,2.0,9.0,72,0.00,,---,0.00,VWS V14.01,2013-10-31 14:05:00,
2013-10-31 10:10:00,64.6,55.0,30.10,ESE,119,2.0,9.0,71,0.00,,---,0.00,VWS V14.01,2013-10-31 14:10:00,
2013-10-31 10:15:00,64.7,55.1,30.10,ESE,117,2.0,9.0,71,0.00,,---,0.00,VWS V14.01,2013-10-31 14:15:00,
2013-10-31 10:20:00,65.0,55.4,30.10,ESE,119,4.0,9.0,71,0.00,,---,0.00,VWS V14.01,2013-10-31 14:20:00,
2013-10-31 10:25:00,65.1,55.1,30.10,SE,130,1.0,9.0,70,0.00,,---,0.00,VWS V14.01,2013-10-31 14:25:00,
2013-10-31 10:30:00,65.2,55.6,30.10,East,94,7.0,7.0,71,0.00,,---,0.00,VWS V14.01,2013-10-31 14:30:00,
2013-10-31 10:35:00,65.2,55.6,30.10,ESE,109,3.0,9.0,71,0.00,,---,0.00,VWS V14.01,2013-10-31 14:35:00,
2013-10-31 10:40:00,65.3,55.7,30.10,SE,125,2.0,9.0,71,0.00,,---,0.00,VWS V14.01,2013-10-31 14:40:00,
2013-10-31 10:45:00,65.5,55.9,30.09,ESE,109,2.0,11.0,71,0.00,,---,0.00,VWS V14.01,2013-10-31 14:45:00,
2013-10-31 10:50:00,65.6,56.3,30.09,ESE,103,4.0,11.0,72,0.00,,---,0.00,VWS V14.01,2013-10-31 14:50:00,
2013-10-31 10:55:00,65.8,56.5,30.09,ESE,107,3.0,11.0,72,0.00,,---,0.00,VWS V14.01,2013-10-31 14:55:00,
2013-10-31 11:00:00,65.9,57.0,30.08,ESE,102,2.0,5.0,73,0.00,,---,0.00,VWS V14.01,2013-10-31 15:00:00,
2013-10-31 11:05:00,66.2,57.7,30.08,East,83,3.0,8.0,74,0.00,,---,0.00,VWS V14.01,2013-10-31 15:05:00,
2013-10-31 11:10:00,66.6,58.1,30.08,East,101,6.0,8.0,74,0.00,,---,0.00,VWS V14.01,2013-10-31 15:10:00,
2013-10-31 11:15:00,66.6,58.1,30.08,ESE,121,5.0,8.0,74,0.00,,---,0.00,VWS V14.01,2013-10-31 15:15:00,
2013-10-31 11:20:00,66.7,58.2,30.08,SE,126,3.0,8.0,74,0.00,,---,0.00,VWS V14.01,2013-10-31 15:20:00,
2013-10-31 11:25:00,67.0,58.8,30.08,SW,215,9.0,10.0,75,0.00,,---,0.00,VWS V14.01,2013-10-31 15:25:00,
2013-10-31 11:30:00,67.2,59.0,30.08,South,169,3.0,7.0,75,0.00,,---,0.00,VWS V14.01,2013-10-31 15:30:00,
2013-10-31 11:35:00,67.6,59.8,30.08,SSE,160,3.0,9.0,76,0.00,,---,0.00,VWS V14.01,2013-10-31 15:35:00,
2013-10-31 11:40:00,68.0,59.8,30.08,East,80,7.0,9.0,75,0.00,,---,0.00,VWS V14.01,2013-10-31 15:40:00,
2013-10-31 11:45:00,68.3,60.5,30.07,South,188,2.0,10.0,76,0.00,,---,0.00,VWS V14.01,2013-10-31 15:45:00,
2013-10-31 11:50:00,68.6,60.7,30.08,SSW,195,3.0,10.0,76,0.00,,---,0.00,VWS V14.01,2013-10-31 15:50:00,
2013-10-31 11:55:00,68.9,60.7,30.07,ESE,113,4.0,10.0,75,0.00,,---,0.00,VWS V14.01,2013-10-31 15:55:00,
2013-10-31 12:00:00,69.4,61.5,30.07,SSW,205,3.0,4.0,76,0.00,,---,0.00,VWS V14.01,2013-10-31 16:00:00,
2013-10-31 12:05:00,69.2,61.7,30.07,SSE,164,3.0,7.0,77,0.00,,---,0.00,VWS V14.01,2013-10-31 16:05:00,
2013-10-31 12:10:00,69.5,62.0,30.07,East,90,2.0,8.0,77,0.00,,---,0.00,VWS V14.01,2013-10-31 16:10:00,
2013-10-31 12:15:00,69.5,62.0,30.07,SSW,202,2.0,8.0,77,0.00,,---,0.00,VWS V14.01,2013-10-31 16:15:00,
2013-10-31 12:20:00,69.5,62.3,30.07,ESE,103,2.0,8.0,78,0.00,,---,0.00,VWS V14.01,2013-10-31 16:20:00,
2013-10-31 12:25:00,69.7,62.5,30.07,SE,138,4.0,8.0,78,0.00,,---,0.00,VWS V14.01,2013-10-31 16:25:00,
2013-10-31 12:30:00,69.8,62.6,30.06,SE,143,3.0,3.0,78,0.00,,---,0.00,VWS V14.01,2013-10-31 16:30:00,
2013-10-31 12:35:00,69.8,63.0,30.06,South,183,4.0,6.0,79,0.00,,---,0.00,VWS V14.01,2013-10-31 16:35:00,
2013-10-31 12:40:00,69.9,63.1,30.06,SSW,194,3.0,9.0,79,0.00,,---,0.00,VWS V14.01,2013-10-31 16:40:00,
2013-10-31 12:45:00,70.0,63.2,30.06,South,191,5.0,10.0,79,0.00,,---,0.00,VWS V14.01,2013-10-31 16:45:00,
2013-10-31 12:50:00,70.3,63.1,30.06,SE,142,10.0,11.0,78,0.00,,---,0.00,VWS V14.01,2013-10-31 16:50:00,
2013-10-31 12:55:00,70.3,63.5,30.05,South,191,6.0,12.0,79,0.00,,---,0.00,VWS V14.01,2013-10-31 16:55:00,
2013-10-31 13:00:00,70.4,63.6,30.05,South,187,7.0,7.0,79,0.00,,---,0.00,VWS V14.01,2013-10-31 17:00:00,
2013-10-31 13:05:00,70.6,63.8,30.05,SSW,195,5.0,9.0,79,0.00,,---,0.00,VWS V14.01,2013-10-31 17:05:00,
2013-10-31 13:10:00,70.9,63.7,30.05,South,188,2.0,10.0,78,0.00,,---,0.00,VWS V14.01,2013-10-31 17:10:00,
2013-10-31 13:15:00,71.1,63.9,30.05,SSE,149,6.0,10.0,78,0.00,,---,0.00,VWS V14.01,2013-10-31 17:15:00,
2013-10-31 13:20:00,71.1,63.9,30.05,SSW,192,4.0,10.0,78,0.00,,---,0.00,VWS V14.01,2013-10-31 17:20:00,
2013-10-31 13:25:00,70.9,63.7,30.04,SSW,194,4.0,10.0,78,0.00,,---,0.00,VWS V14.01,2013-10-31 17:25:00,
2013-10-31 13:30:00,70.9,64.1,30.03,SSE,149,4.0,5.0,79,0.00,,---,0.00,VWS V14.01,2013-10-31 17:30:00,
2013-10-31 13:35:00,71.0,64.2,30.03,SSE,150,5.0,11.0,79,0.00,,---,0.00,VWS V14.01,2013-10-31 17:35:00,
2013-10-31 13:40:00,71.3,64.5,30.03,SSW,197,6.0,11.0,79,0.00,,---,0.00,VWS V14.01,2013-10-31 17:40:00,
2013-10-31 13:45:00,71.5,64.3,30.02,South,191,2.0,12.0,78,0.00,,---,0.00,VWS V14.01,2013-10-31 17:45:00,
2013-10-31 13:50:00,71.5,64.3,30.01,SSW,208,2.0,12.0,78,0.00,,---,0.00,VWS V14.01,2013-10-31 17:50:00,
2013-10-31 13:55:00,71.7,64.5,30.01,SW,221,3.0,12.0,78,0.00,,---,0.00,VWS V14.01,2013-10-31 17:55:00,
2013-10-31 14:00:00,71.9,64.7,30.00,SW,229,3.0,5.0,78,0.00,,---,0.00,VWS V14.01,2013-10-31 18:00:00,
2013-10-31 14:05:00,72.1,64.9,30.00,SE,128,3.0,6.0,78,0.00,,---,0.00,VWS V14.01,2013-10-31 18:05:00,
2013-10-31 14:10:00,72.3,64.7,30.00,SSE,167,5.0,12.0,77,0.00,,---,0.00,VWS V14.01,2013-10-31 18:10:00,
2013-10-31 14:15:00,72.3,64.3,29.99,East,98,3.0,12.0,76,0.00,,---,0.00,VWS V14.01,2013-10-31 18:15:00,
2013-10-31 14:20:00,72.2,64.6,29.99,SSE,157,6.0,12.0,77,0.00,,---,0.00,VWS V14.01,2013-10-31 18:20:00,
2013-10-31 14:25:00,72.2,64.2,29.99,SSW,196,5.0,12.0,76,0.00,,---,0.00,VWS V14.01,2013-10-31 18:25:00,
2013-10-31 14:30:00,72.3,64.7,29.99,SE,130,3.0,7.0,77,0.00,,---,0.00,VWS V14.01,2013-10-31 18:30:00,
2013-10-31 14:35:00,72.4,64.4,29.98,South,170,4.0,10.0,76,0.00,,---,0.00,VWS V14.01,2013-10-31 18:35:00,
2013-10-31 14:40:00,72.7,64.7,29.99,SSW,198,4.0,11.0,76,0.00,,---,0.00,VWS V14.01,2013-10-31 18:40:00,
2013-10-31 14:45:00,72.8,64.8,29.98,South,186,3.0,12.0,76,0.00,,---,0.00,VWS V14.01,2013-10-31 18:45:00,
2013-10-31 14:50:00,72.8,64.8,29.98,SSE,157,7.0,12.0,76,0.00,,---,0.00,VWS V14.01,2013-10-31 18:50:00,
2013-10-31 14:55:00,72.7,64.7,29.98,SSW,210,2.0,12.0,76,0.00,,---,0.00,VWS V14.01,2013-10-31 18:55:00,
2013-10-31 15:00:00,72.9,64.9,29.97,SSE,149,7.0,7.0,76,0.00,,---,0.00,VWS V14.01,2013-10-31 19:00:00,
2013-10-31 15:05:00,72.7,64.7,29.97,SW,218,4.0,10.0,76,0.00,,---,0.00,VWS V14.01,2013-10-31 19:05:00,
2013-10-31 15:10:00,72.9,64.9,29.97,SSW,196,2.0,10.0,76,0.00,,---,0.00,VWS V14.01,2013-10-31 19:10:00,
2013-10-31 15:15:00,73.0,64.6,29.97,SSW,205,4.0,11.0,75,0.00,,---,0.00,VWS V14.01,2013-10-31 19:15:00,
2013-10-31 15:20:00,73.0,65.0,29.97,SW,236,3.0,11.0,76,0.00,,---,0.00,VWS V14.01,2013-10-31 19:20:00,
2013-10-31 15:25:00,73.2,64.8,29.96,South,181,4.0,11.0,75,0.00,,---,0.00,VWS V14.01,2013-10-31 19:25:00,
2013-10-31 15:30:00,73.2,64.8,29.96,SSW,205,1.0,2.0,75,0.00,,---,0.00,VWS V14.01,2013-10-31 19:30:00,
2013-10-31 15:35:00,73.2,64.8,29.95,SE,144,2.0,12.0,75,0.00,,---,0.00,VWS V14.01,2013-10-31 19:35:00,
2013-10-31 15:40:00,73.2,64.8,29.95,SE,141,3.0,12.0,75,0.00,,---,0.00,VWS V14.01,2013-10-31 19:40:00,
2013-10-31 15:45:00,73.1,65.1,29.96,ESE,119,2.0,12.0,76,0.00,,---,0.00,VWS V14.01,2013-10-31 19:45:00,
2013-10-31 15:50:00,73.0,65.0,29.95,East,94,3.0,12.0,76,0.00,,---,0.00,VWS V14.01,2013-10-31 19:50:00,
2013-10-31 15:53:00,73.0,65.0,29.95,SSW,205,2.0,12.0,76,0.00,,---,0.00,VWS V14.01,2013-10-31 19:53:00,
2013-10-31 15:58:00,73.1,65.1,29.94,ESE,123,2.0,12.0,76,0.00,,---,0.00,VWS V14.01,2013-10-31 19:58:00,
2013-10-31 16:03:00,73.2,65.2,29.94,South,186,3.0,7.0,76,0.00,,---,0.00,VWS V14.01,2013-10-31 20:03:00,
2013-10-31 16:08:00,73.2,65.2,29.94,SSE,161,2.0,9.0,76,0.00,,---,0.00,VWS V14.01,2013-10-31 20:08:00,
2013-10-31 16:13:00,73.2,64.8,29.94,South,174,6.0,9.0,75,0.00,,---,0.00,VWS V14.01,2013-10-31 20:13:00,
2013-10-31 16:18:00,73.2,64.8,29.94,SSW,192,5.0,9.0,75,0.00,,---,0.00,VWS V14.01,2013-10-31 20:18:00,
2013-10-31 16:23:00,73.1,65.1,29.93,East,80,2.0,10.0,76,0.00,,---,0.00,VWS V14.01,2013-10-31 20:23:00,
2013-10-31 16:28:00,73.1,64.7,29.93,ESE,109,2.0,10.0,75,0.00,,---,0.00,VWS V14.01,2013-10-31 20:28:00,
2013-10-31 16:33:00,72.9,64.9,29.93,ESE,103,7.0,9.0,76,0.00,,---,0.00,VWS V14.01,2013-10-31 20:33:00,
2013-10-31 16:38:00,72.7,64.7,29.92,SE,124,5.0,9.0,76,0.00,,---,0.00,VWS V14.01,2013-10-31 20:38:00,
2013-10-31 16:43:00,72.6,65.0,29.92,SSW,192,4.0,9.0,77,0.00,,---,0.00,VWS V14.01,2013-10-31 20:43:00,
2013-10-31 16:48:00,72.6,64.6,29.92,ESE,113,2.0,9.0,76,0.00,,---,0.00,VWS V14.01,2013-10-31 20:48:00,
2013-10-31 16:53:00,72.6,64.6,29.92,ESE,114,1.0,9.0,76,0.00,,---,0.00,VWS V14.01,2013-10-31 20:53:00,
2013-10-31 16:58:00,72.7,65.1,29.92,ESE,111,2.0,9.0,77,0.00,,---,0.00,VWS V14.01,2013-10-31 20:58:00,
2013-10-31 17:03:00,72.7,65.1,29.92,ESE,113,2.0,5.0,77,0.00,,---,0.00,VWS V14.01,2013-10-31 21:03:00,
2013-10-31 17:08:00,72.8,65.2,29.91,SE,136,2.0,5.0,77,0.00,,---,0.00,VWS V14.01,2013-10-31 21:08:00,
2013-10-31 17:13:00,72.7,65.1,29.91,SE,141,0.0,5.0,77,0.00,,---,0.00,VWS V14.01,2013-10-31 21:13:00,
2013-10-31 17:18:00,72.7,65.1,29.91,East,97,2.0,6.0,77,0.00,,---,0.00,VWS V14.01,2013-10-31 21:18:00,
2013-10-31 17:23:00,72.6,65.0,29.91,ESE,105,1.0,6.0,77,0.00,,---,0.00,VWS V14.01,2013-10-31 21:23:00,
2013-10-31 17:28:00,72.6,65.0,29.91,ESE,105,2.0,6.0,77,0.00,,---,0.00,VWS V14.01,2013-10-31 21:28:00,
2013-10-31 17:33:00,72.5,64.9,29.91,ENE,78,5.0,8.0,77,0.00,,---,0.00,VWS V14.01,2013-10-31 21:33:00,
2013-10-31 17:38:00,72.5,64.9,29.91,East,79,1.0,8.0,77,0.00,,---,0.00,VWS V14.01,2013-10-31 21:38:00,
2013-10-31 17:43:00,72.4,64.8,29.90,East,80,0.0,8.0,77,0.00,,---,0.00,VWS V14.01,2013-10-31 21:43:00,
2013-10-31 17:48:00,72.4,65.2,29.90,East,80,1.0,8.0,78,0.00,,---,0.00,VWS V14.01,2013-10-31 21:48:00,
2013-10-31 17:53:00,72.4,65.2,29.90,East,80,2.0,8.0,78,0.00,,---,0.00,VWS V14.01,2013-10-31 21:53:00,
2013-10-31 17:58:00,72.3,65.1,29.90,ENE,59,1.0,8.0,78,0.00,,---,0.00,VWS V14.01,2013-10-31 21:58:00,
2013-10-31 18:03:00,72.3,65.1,29.90,ENE,61,0.0,3.0,78,0.00,,---,0.00,VWS V14.01,2013-10-31 22:03:00,
2013-10-31 18:08:00,72.2,65.0,29.90,ENE,63,1.0,4.0,78,0.00,,---,0.00,VWS V14.01,2013-10-31 22:08:00,
2013-10-31 18:13:00,72.2,65.0,29.90,ENE,64,2.0,6.0,78,0.00,,---,0.00,VWS V14.01,2013-10-31 22:13:00,
2013-10-31 18:18:00,72.2,65.0,29.90,ENE,64,0.0,6.0,78,0.00,,---,0.00,VWS V14.01,2013-10-31 22:18:00,
2013-10-31 18:23:00,72.2,65.0,29.90,ENE,64,2.0,6.0,78,0.00,,---,0.00,VWS V14.01,2013-10-31 22:23:00,
2013-10-31 18:28:00,72.1,64.9,29.90,ENE,64,1.0,6.0,78,0.00,,---,0.00,VWS V14.01,2013-10-31 22:28:00,
2013-10-31 18:33:00,72.1,64.9,29.90,ENE,64,0.0,1.0,78,0.00,,---,0.00,VWS V14.01,2013-10-31 22:33:00,
2013-10-31 18:38:00,72.0,64.8,29.90,ENE,64,1.0,4.0,78,0.00,,---,0.00,VWS V14.01,2013-10-31 22:38:00,
2013-10-31 18:43:00,72.0,64.8,29.90,ENE,64,1.0,4.0,78,0.00,,---,0.00,VWS V14.01,2013-10-31 22:43:00,
2013-10-31 18:48:00,72.0,64.8,29.90,ENE,65,1.0,5.0,78,0.00,,---,0.00,VWS V14.01,2013-10-31 22:48:00,
2013-10-31 18:53:00,72.0,64.8,29.90,ENE,65,3.0,5.0,78,0.00,,---,0.00,VWS V14.01,2013-10-31 22:53:00,
2013-10-31 18:58:00,71.9,64.7,29.90,ENE,67,3.0,5.0,78,0.00,,---,0.00,VWS V14.01,2013-10-31 22:58:00,
2013-10-31 19:03:00,71.8,64.6,29.90,ENE,67,0.0,3.0,78,0.00,,---,0.00,VWS V14.01,2013-10-31 23:03:00,
2013-10-31 19:08:00,71.7,64.5,29.90,ENE,67,2.0,3.0,78,0.00,,---,0.00,VWS V14.01,2013-10-31 23:08:00,
2013-10-31 19:13:00,71.7,64.5,29.90,ENE,67,2.0,4.0,78,0.00,,---,0.00,VWS V14.01,2013-10-31 23:13:00,
2013-10-31 19:18:00,71.8,64.2,29.91,ENE,68,2.0,5.0,77,0.00,,---,0.00,VWS V14.01,2013-10-31 23:18:00,
2013-10-31 19:23:00,72.0,64.0,29.91,ENE,76,4.0,6.0,76,0.00,,---,0.00,VWS V14.01,2013-10-31 23:23:00,
2013-10-31 19:28:00,72.0,64.0,29.91,SW,214,1.0,10.0,76,0.00,,---,0.00,VWS V14.01,2013-10-31 23:28:00,
2013-10-31 19:33:00,72.1,63.8,29.91,South,175,4.0,10.0,75,0.00,,---,0.00,VWS V14.01,2013-10-31 23:33:00,
2013-10-31 19:38:00,72.1,63.4,29.90,South,173,3.0,10.0,74,0.00,,---,0.00,VWS V14.01,2013-10-31 23:38:00,
2013-10-31 19:43:00,72.1,63.4,29.90,SE,129,2.0,10.0,74,0.00,,---,0.00,VWS V14.01,2013-10-31 23:43:00,
2013-10-31 19:48:00,72.0,63.3,29.90,SSE,152,2.0,10.0,74,0.00,,---,0.00,VWS V14.01,2013-10-31 23:48:00,
2013-10-31 19:53:00,72.0,63.3,29.90,SSE,155,4.0,10.0,74,0.00,,---,0.00,VWS V14.01,2013-10-31 23:53:00,
2013-10-31 19:58:00,71.9,63.2,29.91,SSE,149,1.0,10.0,74,0.00,,---,0.00,VWS V14.01,2013-10-31 23:58:00,
2013-10-31 20:03:00,71.8,63.1,29.90,SE,146,2.0,5.0,74,0.00,,---,0.00,VWS V14.01,2013-11-01 00:03:00,
2013-10-31 20:08:00,71.9,63.2,29.91,South,186,2.0,7.0,74,0.00,,---,0.00,VWS V14.01,2013-11-01 00:08:00,
2013-10-31 20:13:00,72.0,62.9,29.91,South,189,4.0,7.0,73,0.00,,---,0.00,VWS V14.01,2013-11-01 00:13:00,
2013-10-31 20:18:00,72.0,62.9,29.91,SSW,210,4.0,7.0,73,0.00,,---,0.00,VWS V14.01,2013-11-01 00:18:00,
2013-10-31 20:23:00,72.1,63.0,29.91,SSW,202,3.0,10.0,73,0.00,,---,0.00,VWS V14.01,2013-11-01 00:23:00,
2013-10-31 20:28:00,72.0,62.9,29.91,SW,219,4.0,10.0,73,0.00,,---,0.00,VWS V14.01,2013-11-01 00:28:00,
2013-10-31 20:33:00,71.9,62.8,29.91,SSW,209,5.0,6.0,73,0.00,,---,0.00,VWS V14.01,2013-11-01 00:33:00,
2013-10-31 20:38:00,72.1,63.0,29.90,SW,217,5.0,15.0,73,0.00,,---,0.00,VWS V14.01,2013-11-01 00:38:00,
2013-10-31 20:43:00,72.2,62.7,29.90,SW,234,4.0,15.0,72,0.00,,---,0.00,VWS V14.01,2013-11-01 00:43:00,
2013-10-31 20:48:00,72.3,62.8,29.90,SSW,207,2.0,15.0,72,0.00,,---,0.00,VWS V14.01,2013-11-01 00:48:00,
2013-10-31 20:53:00,72.1,63.0,29.90,SW,217,3.0,15.0,73,0.00,,---,0.00,VWS V14.01,2013-11-01 00:53:00,
2013-10-31 20:58:00,71.9,62.8,29.90,SW,217,5.0,15.0,73,0.00,,---,0.00,VWS V14.01,2013-11-01 00:58:00,
2013-10-31 21:03:00,71.9,62.8,29.90,SW,215,2.0,9.0,73,0.00,,---,0.00,VWS V14.01,2013-11-01 01:03:00,
2013-10-31 21:08:00,71.8,63.1,29.91,SSW,212,3.0,9.0,74,0.00,,---,0.00,VWS V14.01,2013-11-01 01:08:00,
2013-10-31 21:13:00,71.6,62.9,29.90,SSW,204,0.0,9.0,74,0.00,,---,0.00,VWS V14.01,2013-11-01 01:13:00,
2013-10-31 21:18:00,71.5,62.8,29.89,South,180,2.0,9.0,74,0.00,,---,0.00,VWS V14.01,2013-11-01 01:18:00,
2013-10-31 21:23:00,71.5,62.8,29.89,SSW,206,3.0,10.0,74,0.00,,---,0.00,VWS V14.01,2013-11-01 01:23:00,
2013-10-31 21:28:00,71.4,63.1,29.89,SSW,199,4.0,10.0,75,0.00,,---,0.00,VWS V14.01,2013-11-01 01:28:00,
2013-10-31 21:33:00,71.4,62.7,29.89,South,182,0.0,6.0,74,0.00,,---,0.00,VWS V14.01,2013-11-01 01:33:00,
2013-10-31 21:38:00,71.4,62.7,29.89,SW,217,5.0,7.0,74,0.00,,---,0.00,VWS V14.01,2013-11-01 01:38:00,
2013-10-31 21:43:00,71.4,62.7,29.89,SSW,203,7.0,13.0,74,0.00,,---,0.00,VWS V14.01,2013-11-01 01:43:00,
2013-10-31 21:48:00,71.5,62.8,29.88,SSW,200,10.0,15.0,74,0.00,,---,0.00,VWS V14.01,2013-11-01 01:48:00,
2013-10-31 21:53:00,71.5,62.8,29.88,South,184,2.0,15.0,74,0.00,,---,0.00,VWS V14.01,2013-11-01 01:53:00,
2013-10-31 21:58:00,71.4,62.7,29.88,SW,219,4.0,15.0,74,0.00,,---,0.00,VWS V14.01,2013-11-01 01:58:00,
2013-10-31 22:03:00,71.5,62.8,29.88,SSW,210,5.0,13.0,74,0.00,,---,0.00,VWS V14.01,2013-11-01 02:03:00,
2013-10-31 22:08:00,71.3,63.0,29.88,SSW,207,2.0,13.0,75,0.00,,---,0.00,VWS V14.01,2013-11-01 02:08:00,
2013-10-31 22:13:00,71.2,62.9,29.88,SSW,207,4.0,13.0,75,0.00,,---,0.00,VWS V14.01,2013-11-01 02:13:00,
2013-10-31 22:18:00,71.2,62.9,29.88,South,171,1.0,13.0,75,0.00,,---,0.00,VWS V14.01,2013-11-01 02:18:00,
2013-10-31 22:23:00,71.1,62.8,29.88,SSW,209,3.0,13.0,75,0.00,,---,0.00,VWS V14.01,2013-11-01 02:23:00,
2013-10-31 22:28:00,71.0,63.1,29.88,South,180,3.0,13.0,76,0.00,,---,0.00,VWS V14.01,2013-11-01 02:28:00,
2013-10-31 22:33:00,70.9,63.0,29.88,South,186,3.0,6.0,76,0.00,,---,0.00,VWS V14.01,2013-11-01 02:33:00,
2013-10-31 22:38:00,70.8,62.9,29.88,South,191,2.0,7.0,76,0.00,,---,0.00,VWS V14.01,2013-11-01 02:38:00,
2013-10-31 22:43:00,70.8,62.9,29.88,South,185,2.0,7.0,76,0.00,,---,0.00,VWS V14.01,2013-11-01 02:43:00,
2013-10-31 22:48:00,70.7,62.8,29.87,SSW,192,3.0,7.0,76,0.00,,---,0.00,VWS V14.01,2013-11-01 02:48:00,
2013-10-31 22:53:00,70.7,62.8,29.88,SSE,154,2.0,11.0,76,0.00,,---,0.00,VWS V14.01,2013-11-01 02:53:00,
2013-10-31 22:58:00,70.6,62.7,29.87,SSE,156,5.0,11.0,76,0.00,,---,0.00,VWS V14.01,2013-11-01 02:58:00,
2013-10-31 23:03:00,70.6,62.7,29.87,SSE,160,1.0,7.0,76,0.00,,---,0.00,VWS V14.01,2013-11-01 03:03:00,
2013-10-31 23:08:00,70.6,62.7,29.87,South,178,4.0,9.0,76,0.00,,---,0.00,VWS V14.01,2013-11-01 03:08:00,
2013-10-31 23:13:00,70.7,62.8,29.87,SSE,161,5.0,10.0,76,0.00,,---,0.00,VWS V14.01,2013-11-01 03:13:00,
2013-10-31 23:18:00,70.6,62.7,29.87,SSW,213,6.0,10.0,76,0.00,,---,0.00,VWS V14.01,2013-11-01 03:18:00,
2013-10-31 23:23:00,70.5,63.0,29.87,SSW,194,1.0,10.0,77,0.00,,---,0.00,VWS V14.01,2013-11-01 03:23:00,
2013-10-31 23:28:00,70.3,63.1,29.87,SSW,209,6.0,10.0,78,0.00,,---,0.00,VWS V14.01,2013-11-01 03:28:00,
2013-10-31 23:33:00,70.0,63.2,29.87,SSW,192,6.0,9.0,79,0.00,,---,0.00,VWS V14.01,2013-11-01 03:33:00,
2013-10-31 23:38:00,69.8,63.4,29.87,South,191,5.0,10.0,80,0.00,,---,0.00,VWS V14.01,2013-11-01 03:38:00,
2013-10-31 23:43:00,69.8,63.4,29.86,SSW,211,5.0,10.0,80,0.00,,---,0.00,VWS V14.01,2013-11-01 03:43:00,
2013-10-31 23:48:00,69.7,63.3,29.86,SW,224,6.0,11.0,80,0.00,,---,0.00,VWS V14.01,2013-11-01 03:48:00,
2013-10-31 23:53:00,69.6,63.2,29.86,SSE,167,1.0,11.0,80,0.00,,---,0.00,VWS V14.01,2013-11-01 03:53:00,
2013-10-31 23:58:00,69.5,63.4,29.86,South,184,4.0,11.0,81,0.00,,---,0.00,VWS V14.01,2013-11-01 03:58:00,